STARLINK-36722

Last updated on Wed Mar 25 2026 00:02:05 GMT+0000 (Coordinated Universal Time)

1 67917U 26036P 26083.50002314 -.02158800 00000+0 -69959-1 0 9995 2 67917 42.9995 161.3496 0001184 267.8964 325.8916 15.34701397 6028
UTC large
Height (km)
Speed (km/s)
/
Latitude / Longitude
Inclination (degrees)
Orbital Period (minutes)
Azimuth
Elevation
Range (km)
Doppler Factor

Next 0 passes for location: London (51.5072 / 0.1276)

Sorry there are no passes over London.